Theta_e
311 310 311 311 311 312 312 311 310 311 312 309 309 309 309 309 309 308 308 305 309 311 312 310 309 307 308 309 311 312 316 316 318 317 316 321 324 322 321 320 325 335 337 340 348
311 310 310 311 311 312 311 311 312 312 309 308 308 308 308 309 308 308 305 310 312 312 311 308 307 306 306 310 310 312 313 314 313 314 314 317 323 324 326 323 329 340 341 346 346
311 310 310 310 310 310 311 312 309 311 309 308 308 309 309 308 306 306 311 310 311 310 309 309 308 306 307 308 309 310 312 311 312 314 316 317 322 323 326 328 326 338 344 346 345
311 310 309 309 310 310 310 310 310 310 309 308 309 308 309 307 305 306 309 307 308 306 308 307 307 308 308 308 309 311 310 310 312 314 314 319 321 323 323 325 325 322 340 344 343
311 310 309 309 309 309 309 309 309 309 308 308 309 308 307 307 306 306 307 304 304 305 306 306 308 308 308 307 308 311 309 310 311 312 313 317 321 321 321 319 322 325 334 340 341
310 310 309 308 308 307 307 308 310 308 307 307 308 306 306 307 304 305 305 304 304 303 303 306 307 307 308 309 310 309 310 311 311 312 313 317 318 318 320 321 323 331 337 339 341
311 310 308 308 307 307 307 308 308 307 308 308 308 306 305 305 304 304 305 304 304 304 304 305 307 307 308 308 307 309 310 311 312 311 313 317 318 317 316 318 324 327 329 335 341
311 310 309 307 307 306 307 307 307 307 306 307 308 305 303 304 305 304 303 304 304 304 305 306 306 306 307 307 307 309 310 313 313 311 311 316 318 315 316 316 322 321 322 326 331
312 310 309 307 306 306 306 307 307 307 305 307 305 304 304 304 304 304 304 304 304 304 305 306 305 306 307 307 305 309 313 313 314 311 313 316 318 315 314 315 323 321 320 323 324
311 310 308 307 306 306 307 305 304 304 305 306 305 303 302 304 304 303 304 304 303 303 303 302 301 304 304 307 298 308 312 313 315 313 313 317 317 317 314 313 317 322 320 322 322
310 309 307 306 305 306 305 304 301 302 303 303 303 302 303 303 303 303 303 303 303 302 303 300 299 298 301 304 309 309 309 311 314 317 316 319 317 316 317 312 316 321 320 321 322
311 309 307 306 306 306 304 301 302 300 301 300 302 302 303 303 304 303 303 303 303 302 302 298 299 302 305 305 309 309 310 314 314 315 318 319 318 318 315 314 315 320 319 319 320
311 308 306 305 306 305 303 303 302 302 301 303 302 303 303 304 305 303 302 302 303 303 302 301 301 302 305 306 310 310 312 314 317 319 319 320 322 321 318 318 318 318 319 318 319
310 307 305 305 305 304 303 302 301 302 293 303 305 304 304 303 303 303 302 302 302 303 302 300 301 305 308 307 310 310 311 316 318 318 323 316 323 322 320 320 319 320 319 318 317
310 307 305 305 305 305 303 302 301 299 296 298 306 304 304 304 303 304 303 302 303 302 302 297 304 306 310 311 310 314 313 314 316 316 321 319 317 320 320 321 319 317 318 319 317
310 306 306 305 304 303 302 301 300 295 292 303 306 307 306 304 303 303 303 302 302 304 302 301 304 305 308 310 309 309 314 315 315 315 316 319 316 317 321 319 318 316 318 317 317
308 305 306 305 303 303 302 298 296 294 297 301 306 306 305 305 304 303 303 300 304 302 304 307 307 307 307 312 308 307 309 314 312 312 318 316 317 314 317 316 317 316 317 318 318
308 304 306 305 303 302 300 294 296 297 296 302 306 307 304 306 302 303 301 300 303 305 303 309 311 312 310 310 311 311 308 309 317 318 319 318 319 314 310 312 314 315 314 317 317
305 306 305 302 303 303 294 292 294 296 302 303 301 296 307 307 304 300 295 300 301 305 312 310 311 311 309 309 310 313 314 312 311 309 310 314 312 309 308 307 308 310 313 313 315
305 304 303 302 303 301 295 298 300 301 302 303 299 306 305 308 305 303 299 304 307 303 305 308 301 307 310 308 309 312 312 311 308 313 319 315 310 310 309 308 307 310 312 311 310
305 304 303 303 303 297 294 295 300 300 304 306 305 306 305 308 305 299 301 305 307 307 304 307 303 304 305 309 310 312 313 313 311 309 314 314 312 307 307 306 308 308 308 308 309
304 305 302 303 301 293 295 299 301 301 303 304 303 304 305 308 307 297 303 305 305 308 309 308 303 305 310 308 310 308 309 312 308 313 305 305 312 305 304 307 308 308 309 307 307
303 304 302 301 298 294 298 300 299 301 301 303 302 303 304 307 305 305 299 304 307 309 311 310 305 296 301 304 308 310 311 312 306 305 313 310 312 306 305 307 308 309 308 308 307
300 304 302 301 294 297 299 299 300 299 300 302 302 303 305 308 305 306 301 307 308 308 311 311 312 304 306 309 307 307 310 309 300 305 311 308 311 308 306 306 305 308 308 308 307
299 301 302 304 297 297 298 299 299 300 299 301 303 303 301 305 306 306 303 306 307 306 308 310 310 312 313 311 310 310 310 312 303 309 305 311 312 309 308 306 305 305 308 309 309
301 300 295 295 296 297 300 299 299 299 299 300 303 303 302 303 300 304 304 306 302 307 309 309 308 308 307 307 311 311 310 312 311 313 312 311 312 309 307 306 305 304 305 306 307
297 295 297 297 296 297 297 297 299 298 299 299 301 302 303 302 300 300 300 301 303 306 308 309 305 304 306 305 310 307 307 311 312 311 312 314 312 309 308 307 306 305 304 303 304
Wind_Speed
13 14 11 12 13 14 14 13 12 11 11 13 13 13 13 11 11 11 6 7 4 8 8 4 3 3 2 3 3 0 5 12 16 14 15 10 4 14 11 12 5 5 3 7 30
14 12 11 11 12 12 13 12 14 12 10 11 12 10 10 9 9 8 7 8 9 9 4 1 2 2 2 2 3 6 7 18 10 12 13 12 13 11 9 13 9 3 3 24 36
16 13 12 11 12 12 12 13 12 13 10 10 10 7 6 5 2 4 1 3 6 7 4 3 3 2 2 3 4 5 15 17 16 11 3 11 12 8 10 10 14 6 12 17 24
15 13 12 11 11 11 11 11 12 11 9 8 8 6 5 2 2 2 3 6 5 6 4 3 3 2 3 6 6 7 9 15 17 4 5 11 7 8 10 15 18 7 15 18 22
14 14 12 11 11 12 10 11 11 8 9 5 8 5 2 1 6 2 2 6 4 3 1 3 4 4 7 4 5 11 7 8 12 17 16 9 11 3 13 25 19 9 12 21 21
15 13 12 11 10 11 10 10 10 8 8 5 6 4 1 2 2 3 3 4 4 3 2 1 3 4 5 7 9 4 9 9 12 15 12 16 5 0 4 20 20 14 16 19 23
15 12 14 12 10 10 10 8 9 8 7 4 3 3 0 8 3 4 6 5 5 4 2 3 3 2 1 5 9 5 8 10 12 16 9 12 13 11 8 16 19 8 5 9 21
16 14 13 13 9 10 9 8 9 8 5 2 1 1 4 3 7 8 6 8 8 7 4 4 3 2 2 2 2 4 5 5 10 18 12 9 11 8 4 10 13 2 5 5 4
17 15 11 13 10 7 7 7 8 5 3 2 0 2 6 6 4 4 6 4 6 5 2 2 2 2 1 3 3 5 6 10 6 19 12 17 6 5 2 16 5 4 2 6 7
16 15 13 13 10 6 5 6 2 2 4 3 1 1 4 2 3 4 6 4 1 2 3 5 4 1 2 3 3 3 3 6 7 12 17 15 10 6 3 13 16 4 4 4 7
16 15 12 11 8 5 2 5 2 2 1 4 3 2 2 8 7 4 4 1 1 4 3 3 3 4 9 8 11 5 7 12 5 5 13 13 8 9 8 11 16 11 6 3 3
14 13 13 8 8 5 3 3 2 3 1 4 4 4 5 4 3 3 1 1 1 2 1 4 4 7 7 5 11 8 9 5 2 5 12 11 6 7 5 6 9 9 11 5 1
13 13 13 8 8 5 5 5 2 3 4 2 3 1 3 3 2 3 3 1 3 1 2 4 5 7 10 5 10 9 5 1 3 6 3 10 5 8 6 6 4 6 11 5 3
12 12 10 8 5 7 4 5 4 4 4 2 1 1 2 2 2 4 2 2 1 1 3 5 4 7 7 6 4 4 7 2 8 2 1 3 2 4 8 7 6 10 10 5 5
13 10 11 11 8 5 6 7 6 3 3 2 1 0 2 2 3 2 4 2 3 2 2 6 4 7 9 4 1 4 6 5 5 4 2 2 3 2 2 3 2 9 6 7 6
12 10 12 11 5 9 11 10 3 5 5 0 3 2 1 2 1 4 2 1 0 2 4 6 2 3 4 3 3 6 3 3 4 1 3 4 1 2 4 3 5 4 6 6 7
11 11 16 9 6 15 14 4 4 4 3 2 2 2 3 4 4 5 4 6 2 4 3 2 2 3 6 2 2 1 1 2 4 4 2 5 4 0 11 8 6 4 5 10 10
14 11 11 7 16 18 6 5 3 4 4 2 3 4 3 4 2 4 5 4 2 2 2 2 3 6 2 1 3 3 1 3 3 2 1 2 3 2 2 6 8 8 9 12 12
17 16 7 13 16 14 5 3 6 5 4 5 3 5 2 1 1 5 1 3 3 4 4 5 4 3 4 2 3 2 3 1 4 2 3 3 4 3 8 8 2 8 10 9 11
22 10 5 14 13 8 4 4 2 4 3 3 4 1 2 1 0 3 3 4 5 3 2 2 2 3 3 2 5 5 1 3 3 3 4 4 4 5 12 11 8 4 7 7 4
16 4 10 14 12 3 3 5 3 2 3 2 3 3 2 2 2 2 4 4 5 6 2 1 3 5 2 5 4 3 3 2 3 2 3 4 0 3 7 6 5 7 5 2 3
8 3 14 17 2 0 3 5 3 3 2 2 3 3 3 2 3 2 1 3 5 3 3 2 3 2 2 1 2 1 2 2 3 2 3 3 4 7 7 7 7 7 5 4 2
4 3 7 3 3 2 2 2 2 3 2 3 2 1 2 2 1 2 3 4 6 4 3 4 3 3 7 4 2 5 4 3 3 2 3 4 2 5 7 7 7 7 6 6 7
4 5 2 2 0 4 5 4 3 2 2 4 3 2 2 1 4 2 2 1 4 5 6 4 3 3 3 3 2 3 4 4 3 3 3 2 2 5 6 7 7 6 5 6 6
1 3 4 5 4 4 3 5 5 4 1 2 2 3 5 3 2 2 1 2 4 7 4 3 4 4 2 4 2 3 3 4 4 2 3 4 3 2 3 4 5 6 7 8 8
5 4 2 2 5 7 4 5 5 3 4 2 3 4 3 4 5 5 3 3 1 5 4 4 2 3 4 6 3 4 6 2 4 3 5 3 4 2 4 5 8 8 8 8 8
3 3 4 1 3 5 5 7 7 7 3 2 6 4 3 3 4 3 3 2 0 2 4 2 1 2 2 4 0 5 5 3 2 3 4 3 1 3 5 6 6 7 7 6 7
Wind_Direction
307 307 307 305 306 311 316 318 312 315 322 322 322 318 306 309 303 298 251 246 251 263 264 280 302 332 241 239 217 114 239 239 239 236 239 196 257 266 258 263 278 181 189 167 156
305 306 304 305 307 311 314 315 311 307 325 321 327 323 313 315 306 269 280 266 266 284 220 298 318 23 304 252 224 194 224 236 245 239 274 258 204 281 323 286 249 208 93 139 153
295 301 303 305 307 309 307 317 308 312 325 327 329 336 331 325 330 254 277 326 290 301 279 244 182 143 231 217 221 218 234 231 253 268 324 260 235 203 315 277 277 228 157 158 166
285 296 298 301 306 307 310 307 313 306 319 326 339 330 341 320 295 266 334 337 316 315 230 206 119 212 248 246 224 247 236 237 247 280 325 308 229 229 245 274 271 262 173 167 172
275 285 290 297 301 300 301 309 309 303 318 323 345 341 8 342 253 216 304 335 329 319 213 223 198 206 248 218 239 249 256 274 252 253 266 289 241 231 239 275 298 252 225 168 186
270 277 287 288 296 298 298 299 303 299 311 298 337 351 97 269 277 221 290 321 346 3 319 224 248 260 268 247 216 240 241 271 259 247 240 266 278 282 234 282 268 233 211 187 186
264 268 282 278 289 296 289 296 302 298 295 279 325 352 30 243 273 257 267 280 285 279 293 283 279 243 296 278 335 295 283 272 243 223 202 255 238 234 224 328 286 228 180 201 180
259 265 272 279 282 290 281 296 292 295 279 233 3 345 248 270 286 290 262 275 265 249 265 277 278 242 219 26 296 288 249 247 226 205 187 213 253 203 206 292 276 302 166 148 119
253 255 259 273 275 279 279 294 292 282 200 168 37 108 273 304 272 289 238 260 279 259 244 271 2 231 25 275 300 202 287 211 233 192 162 210 261 219 82 274 224 340 50 126 108
251 247 261 266 273 261 280 304 175 154 132 147 101 27 274 297 292 263 248 250 265 308 330 40 21 321 286 216 228 290 301 200 241 189 183 215 238 187 113 254 340 313 27 57 99
235 246 254 263 260 243 226 115 52 31 141 180 186 248 252 303 290 244 252 153 34 48 302 13 45 260 259 240 265 273 273 269 237 164 182 208 225 217 242 276 316 319 2 25 156
228 237 249 251 242 229 146 147 152 154 58 216 249 276 276 327 286 320 156 151 149 266 52 351 248 245 301 281 276 242 275 243 304 201 180 174 214 150 180 260 262 330 329 338 260
212 243 242 210 228 192 127 137 139 138 90 262 193 172 275 3 284 291 18 200 228 248 197 205 259 319 287 303 279 250 255 347 198 121 79 144 151 156 195 164 272 352 291 296 310
197 224 231 200 214 149 120 151 152 119 73 252 212 340 328 22 266 304 285 239 330 290 296 245 285 293 293 248 225 264 167 41 148 90 60 315 125 150 159 157 233 228 281 311 283
206 230 228 202 151 149 142 143 142 72 21 257 142 326 3 66 298 346 328 349 241 248 71 265 303 346 311 318 121 317 355 56 18 92 161 66 95 331 116 31 214 234 281 299 279
214 223 217 202 152 139 141 137 100 47 258 252 127 32 18 29 12 299 316 16 210 310 214 238 239 246 282 59 29 300 119 30 28 7 43 348 137 169 157 196 236 105 308 293 293
184 203 211 201 167 147 139 81 39 131 358 262 135 113 114 25 22 6 345 339 35 352 342 294 233 294 228 324 257 263 57 42 25 32 4 321 4 145 200 211 217 180 189 305 277
199 184 208 213 150 147 123 58 120 182 203 196 95 86 79 5 350 323 345 341 221 236 272 340 33 3 1 115 300 58 123 134 133 99 108 11 28 37 21 205 220 230 172 218 252
163 180 180 155 152 152 77 87 211 194 188 149 74 74 98 90 341 30 222 267 241 205 348 4 38 307 17 8 335 75 62 345 133 51 68 321 303 253 7 39 56 215 207 210 244
148 152 155 156 154 121 77 232 187 192 139 106 123 172 121 280 55 12 331 316 326 191 180 354 57 301 320 331 40 27 334 58 354 84 88 6 23 315 342 344 6 64 193 194 218
145 127 159 155 134 60 177 218 208 157 133 147 138 113 127 170 92 78 284 299 349 326 172 332 82 302 21 21 358 13 14 44 104 77 154 129 5 322 311 316 24 43 50 56 159
131 124 158 153 113 301 169 191 166 147 107 106 102 119 143 192 158 111 298 256 339 287 360 333 128 81 256 312 189 157 360 54 89 360 36 100 334 347 333 348 39 44 33 32 41
105 112 159 159 171 235 224 109 112 130 144 136 110 135 221 156 88 86 230 270 328 19 15 348 29 10 347 360 22 48 352 33 72 68 45 101 246 353 15 34 27 39 18 21 29
136 127 123 211 122 162 149 161 122 52 103 96 120 92 141 61 34 145 318 341 345 13 16 25 24 112 160 210 235 13 349 49 81 68 149 119 99 354 6 29 14 8 27 29 33
143 163 173 177 223 178 132 148 142 143 98 111 113 185 163 135 127 131 170 286 23 349 19 57 41 11 323 312 98 27 19 23 55 184 101 174 106 358 348 357 353 1 14 28 19
138 135 79 101 110 117 147 186 147 132 144 184 155 173 146 142 181 183 146 7 193 329 26 7 1 35 6 13 31 76 71 66 62 59 49 75 52 2 35 55 39 22 26 22 6
143 92 103 24 115 114 192 171 172 137 20 150 145 108 106 156 113 114 103 127 85 38 349 36 66 57 317 354 270 22 17 1 338 29 128 63 31 340 24 37 24 8 9 23 6